Content
SEND FEEDBACK

Daily
Averages
Monthly
Summary
United States of America

UMATAC, GUAM


Home > North America > United States > Guam
Elevation: 190 feet     Latitude: 13 17N     Longitude: 144 40E

WEATHER
 
SELECT A DAY
Number of Records: 342,273;   Date Range: 1/1/95 - 8/30/14
 
SHARE

PRINT THIS DATA

[ ← Previous Day ]
WEATHER ALMANAC - FEBRUARY 21, 2014
[ Next Day → ]
[ °C ]   °F
Weather ElementAverageHighLow
Temperature79.8 °F84.2 °F (10:58 am)73.4 °F (2:58 am)
Dewpoint75.9 °F77 °F (10:58 am)68 °F (2:58 am)
Humidity88.1 %100 % (5:58 am)79 % (10:58 am)
Barometer29.84 in29.90 in (11:03 am)29.78 in (2:58 pm)
Wind Speed6.5 mph10.4 mph (4:43 pm)
Weather ElementAverage
Visibility10 mi
Wind DirectionENE (57.4 °)

Weather ElementTotal
Precipitation---
Cooling Degree Days13.8 (Base 65)
Growing Degree Days28.8 (Base 50)
Averaged from 43 records on February 21, 2014
WEATHER CONDITIONS BREAKOUT
WIND DIRECTION BREAKOUT
WEATHER BY HOUR - FEBRUARY 21, 2014
[ °C ]   °F
Local TimeTemperatureDewpointHumidityBarometerVisibilityWind DirectionWind SpeedGust SpeedPrecipitationEventsConditions
1:58 AM75.2 °F71.6 °F89 %29.81 in10.0 miCalmClear
2:58 AM73.4 °F68.0 °F83 %29.81 in10.0 miCalmClear
3:58 AM73.4 °F69.8 °F88 %29.83 in10.0 miCalmClear
4:58 AM73.4 °F71.6 °F94 %29.81 in10.0 miENE (70°)4.6 mphClear
5:58 AM74.7 °F74.7 °F100 %29.82 in10.0 miEast (80°)3.5 mphClear
6:58 AM75.2 °F74.8 °F99 %29.84 in10.0 miNE (50°)2.3 mphPartly Cloudy
7:58 AM77.4 °F76.6 °F98 %29.86 in10.0 miENE (60°)4.6 mphPartly Cloudy
8:58 AM79.5 °F76.8 °F91 %29.87 in10.0 miEast (80°)4.6 mphClear
9:58 AM82.4 °F75.6 °F80 %29.87 in10.0 miVariable6.9 mphPartly Cloudy
10:58 AM84.2 °F77.0 °F79 %29.86 in10.0 miVariable4.6 mphMostly Cloudy
11:03 AM82.4 °F77.0 °F84 %29.90 in10.0 miEast (90°)5.8 mphMostly Cloudy
11:08 AM82.4 °F77.0 °F84 %29.89 in10.0 miEast (100°)6.9 mphMostly Cloudy
11:18 AM82.4 °F77.0 °F84 %29.89 in10.0 miESE (110°)5.8 mphScattered Clouds
11:58 AM82.2 °F76.1 °F82 %29.84 in10.0 miESE (120°)6.9 mphPartly Cloudy
12:58 PM81.7 °F76.3 °F84 %29.83 in10.0 miNE (50°)4.6 mphScattered Clouds
1:03 PM80.6 °F77.0 °F89 %29.85 in10.0 miEast (80°)4.6 mphMostly Cloudy
1:08 PM80.6 °F77.0 °F89 %29.85 in10.0 miESE (110°)5.8 mphScattered Clouds
1:13 PM80.6 °F77.0 °F89 %29.85 in10.0 miEast (80°)5.8 mphMostly Cloudy
1:23 PM82.4 °F77.0 °F84 %29.84 in10.0 miEast (100°)4.6 mphMostly Cloudy
1:58 PM82.4 °F76.6 °F83 %29.81 in10.0 miESE (120°)5.8 mphScattered Clouds
2:13 PM82.4 °F77.0 °F84 %29.82 in10.0 miVariable5.8 mphMostly Cloudy
2:18 PM82.4 °F77.0 °F84 %29.82 in10.0 miENE (60°)8.1 mphScattered Clouds
2:28 PM82.4 °F77.0 °F84 %29.82 in10.0 miENE (70°)8.1 mphMostly Cloudy
2:58 PM81.9 °F76.3 °F83 %29.78 in10.0 miEast (80°)8.1 mphMostly Cloudy
3:03 PM82.4 °F75.2 °F79 %29.81 in10.0 miENE (70°)6.9 mphMostly Cloudy
3:13 PM80.6 °F75.2 °F84 %29.81 in10.0 miENE (70°)8.1 mphScattered Clouds
3:58 PM81.3 °F75.7 °F83 %29.78 in10.0 miENE (70°)8.1 mphPartly Cloudy
4:23 PM82.4 °F77.0 °F84 %29.81 in10.0 miENE (70°)5.8 mphMostly Cloudy
4:43 PM80.6 °F77.0 °F89 %29.81 in10.0 miENE (70°)10.4 mphOvercast
4:58 PM80.6 °F77.0 °F89 %29.78 in10.0 miENE (60°)6.9 mphScattered Clouds
5:58 PM80.1 °F76.8 °F90 %29.81 in10.0 miNE (40°)9.2 mphPartly Cloudy
6:23 PM80.6 °F77.0 °F89 %29.83 in10.0 miNE (50°)8.1 mphMostly Cloudy
6:33 PM78.8 °F77.0 °F94 %29.83 in10.0 miNE (50°)8.1 mphScattered Clouds
6:58 PM79.3 °F76.5 °F91 %29.81 in10.0 miNE (40°)8.1 mphScattered Clouds
7:58 PM79.0 °F76.3 °F91 %29.83 in10.0 miNE (40°)9.2 mphScattered Clouds
8:18 PM78.8 °F77.0 °F94 %29.87 in10.0 miNE (40°)8.1 mphMostly Cloudy
8:23 PM78.8 °F77.0 °F94 %29.87 in10.0 miNE (40°)10.4 mphMostly Cloudy
8:28 PM78.8 °F77.0 °F94 %29.88 in10.0 miNE (40°)9.2 mphMostly Cloudy
8:33 PM78.8 °F77.0 °F94 %29.88 in10.0 miNE (40°)10.4 mphScattered Clouds
8:58 PM78.8 °F76.3 °F92 %29.86 in10.0 miNE (40°)9.2 mphPartly Cloudy
9:58 PM78.6 °F75.9 °F91 %29.86 in10.0 miNE (40°)6.9 mphMostly Cloudy
10:58 PM78.1 °F75.4 °F91 %29.87 in10.0 miNE (50°)6.9 mphMostly Cloudy
11:58 PM78.3 °F74.8 °F89 %29.86 in10.0 miNE (40°)10.4 mphMostly Cloudy
Hourly data recorded from PGUA, located miles away from Umatac, Guam







STORIES FROM OUR PARTNERS